Location: Santa Cristina
(46.5667°N, 11.7167°E)
Time: 17:44:14
(UTC+00:00)

Cosmos 1766 - Pass Details

Date: 21 April 2021
Orbit: 522 x 542 km, 82.5° (Epoch: 11 May)

Event Time Altitude Azimuth Distance (km) Brightness Sun altitude
Rises 02:14:06 0° 355° (N) 2,715 7.4 -18.7°
Reaches altitude 10° 02:16:18 10° 360° (N) 1,818 6.5 -18.5°
Maximum altitude 02:20:14 54° 78° (ENE) 669 4.0 -18.0°
Drops below altitude 10° 02:24:07 10° 156° (SSE) 1,801 5.8 -17.5°
Enters shadow 02:25:19 - 159° (SSE) 2,290 6.3 -17.3°
